Wetbulb
62.97 63.63 64.29 63.72 63.70 63.64 63.45 63.69 64.38 63.98 62.70 63.13 65.62 66.50 66.44 65.30 69.59 69.76 70.22 71.27 70.54 70.94 71.07 71.19 70.23 69.65 70.38 70.08 71.72 72.28 72.14 71.73 71.33 70.77 69.82 68.97 68.19 67.12 66.28 65.45 65.18 64.70 64.57
63.23 63.81 63.39 63.76 63.43 63.50 63.96 63.97 64.10 64.14 64.32 64.91 65.59 67.18 66.87 67.30 68.84 69.64 69.86 69.82 70.18 69.84 70.15 70.30 69.35 70.11 70.16 70.35 72.34 71.85 71.61 71.04 70.79 69.72 68.95 68.45 67.48 66.12 65.50 65.06 64.87 64.57 64.40
63.69 64.23 63.57 63.50 62.99 63.25 63.08 63.96 64.25 64.58 64.47 65.87 66.21 66.49 66.67 67.01 68.38 69.74 69.11 68.78 68.77 69.65 69.83 69.44 70.28 70.52 70.45 70.67 71.79 71.78 71.42 70.82 70.02 69.38 68.45 67.58 66.97 65.96 65.14 65.09 64.82 64.29 63.90
64.48 64.29 63.59 63.52 63.76 63.59 63.28 63.07 63.48 64.13 63.79 64.40 65.18 65.01 65.23 67.31 68.42 68.99 68.60 67.73 67.37 67.74 69.03 69.83 69.75 70.38 70.68 70.80 71.35 71.66 71.18 70.15 69.56 68.82 67.86 67.06 65.79 65.27 64.94 64.70 64.41 63.91 63.60
65.12 64.87 63.85 64.20 64.16 63.16 63.03 63.48 62.90 62.93 63.89 63.88 64.69 64.48 65.42 66.69 68.68 68.55 67.69 67.25 67.27 67.38 67.43 69.10 69.10 69.22 69.72 70.81 71.60 71.73 70.52 69.76 69.08 68.23 67.35 66.13 65.46 64.89 64.53 64.39 64.05 63.58 63.22
64.81 65.37 63.93 63.65 64.62 63.10 62.43 63.01 62.98 63.74 63.67 64.12 65.28 64.55 65.53 66.96 67.95 66.78 67.14 67.45 66.85 66.49 67.25 65.84 67.32 67.77 68.88 70.36 70.83 70.93 70.15 69.13 68.05 67.31 67.19 66.35 65.42 64.49 64.19 63.91 63.69 63.27 62.83
64.10 65.04 64.15 63.71 64.36 63.25 62.75 62.75 63.45 62.78 62.63 63.48 62.75 62.74 64.44 67.27 66.33 66.76 67.18 66.73 65.62 65.44 65.60 66.71 66.71 66.20 67.05 68.44 68.57 70.24 69.68 68.70 67.83 66.84 66.47 65.75 65.00 64.03 63.65 63.47 62.92 62.43 62.31
64.91 64.92 63.94 63.44 63.61 63.28 63.61 62.67 63.76 62.29 62.21 63.29 62.01 62.28 59.20 61.79 64.37 65.44 65.69 64.75 65.15 65.51 65.26 65.64 66.06 66.42 66.44 66.04 67.60 69.45 68.88 68.47 67.79 66.63 65.89 65.24 64.84 63.79 63.21 62.67 62.31 62.08 61.86
65.08 65.16 64.54 64.21 63.83 64.66 63.33 62.73 62.99 62.25 61.97 63.08 63.94 62.25 58.31 57.44 60.89 63.94 64.06 64.42 64.85 64.54 64.81 64.91 65.13 65.77 65.61 66.13 67.47 68.50 68.37 68.16 67.35 66.35 65.00 64.98 64.04 63.49 62.93 62.41 62.29 61.89 61.91
64.51 64.46 64.59 64.28 64.31 64.53 63.01 62.88 63.93 62.53 62.28 60.85 63.22 64.51 64.74 62.11 58.51 58.29 62.79 63.64 64.27 63.65 64.16 64.37 64.44 65.11 65.50 66.20 67.63 67.96 66.93 67.17 66.67 65.33 64.32 64.15 63.76 63.24 62.74 62.24 62.08 62.59 61.63
65.07 64.77 64.64 65.07 63.89 63.79 64.16 63.68 63.70 63.39 63.98 62.97 63.27 63.37 63.10 62.49 62.17 59.82 57.93 60.36 63.04 63.81 64.11 64.09 64.45 64.76 65.43 65.98 66.47 65.81 65.45 65.26 65.24 64.87 64.68 64.22 63.50 63.14 62.59 62.33 62.08 61.72 61.03
63.72 64.76 64.45 65.22 64.84 64.10 65.22 65.06 64.49 63.70 64.45 64.53 64.69 63.30 62.49 60.93 60.20 59.68 58.72 59.67 60.33 62.15 63.86 63.99 63.86 63.68 64.35 65.08 66.75 64.98 63.87 63.19 62.71 62.95 63.35 64.04 64.46 64.39 63.23 62.38 61.97 60.95 60.70
63.29 63.60 64.45 64.95 65.77 64.90 65.92 66.10 65.60 64.40 64.93 64.49 63.50 63.42 63.73 63.15 62.38 61.34 59.75 58.83 58.35 58.45 61.69 63.83 63.90 64.29 64.92 64.58 64.72 64.30 63.92 61.76 61.45 61.23 61.79 62.58 63.08 63.56 63.87 63.62 62.31 61.78 60.58
63.61 64.31 64.67 65.42 65.63 65.25 65.01 65.71 64.51 65.29 64.56 64.01 63.41 63.48 63.24 63.37 63.32 62.47 60.36 58.30 56.86 57.30 58.85 60.36 63.40 64.35 64.84 65.22 63.46 63.80 62.22 61.04 60.36 59.77 60.06 60.89 61.69 62.08 61.90 62.14 62.08 61.55 61.58
64.60 64.66 64.88 65.08 65.49 65.29 64.55 64.49 64.38 64.40 64.91 64.05 64.28 63.59 62.98 63.52 63.19 62.42 61.71 61.03 58.68 55.64 55.80 59.35 60.48 63.75 64.50 65.37 63.62 62.98 61.67 61.37 60.70 58.94 58.75 58.92 59.06 59.49 59.95 59.66 59.42 59.47 58.95
65.07 63.90 64.46 64.51 64.73 65.08 65.10 65.49 65.11 64.88 64.29 63.00 63.35 63.11 62.67 63.11 63.03 63.19 62.66 61.93 61.09 58.95 56.34 60.15 60.79 63.15 64.77 64.93 63.80 63.35 62.70 60.51 59.44 58.28 57.94 57.54 57.21 57.78 57.60 57.52 57.92 57.48 57.06
64.10 64.02 63.58 64.48 64.57 64.69 64.03 65.38 64.47 63.96 63.41 63.24 62.81 61.33 61.68 62.70 62.60 62.39 62.73 61.88 61.09 60.44 58.25 60.43 62.25 63.70 63.29 63.97 62.19 63.49 62.18 58.55 57.09 57.21 57.42 56.50 55.66 55.76 55.85 55.97 56.13 55.70 55.56
64.74 64.55 64.86 64.29 64.46 65.28 65.75 64.58 63.78 63.52 62.71 62.14 62.09 61.04 60.85 61.99 61.45 61.67 62.10 61.39 60.87 61.43 59.85 58.25 60.29 62.03 61.55 62.42 61.01 61.41 60.90 60.18 56.71 56.78 56.22 55.33 54.49 54.20 53.73 53.73 53.70 53.42 52.96
64.05 64.75 64.68 64.63 64.35 64.84 64.25 64.34 64.70 64.14 63.04 62.39 61.99 60.85 60.71 61.15 60.73 61.07 60.98 61.26 61.71 62.95 60.69 59.42 59.44 59.97 59.92 59.71 58.36 60.21 61.67 61.28 60.10 58.31 55.09 54.71 54.01 53.50 52.78 52.30 52.58 52.11 51.02
62.97 63.32 64.55 64.72 64.12 64.42 64.76 65.29 64.77 63.90 63.67 63.11 62.47 62.24 61.39 61.48 61.24 61.54 61.57 61.02 61.84 61.82 60.11 59.42 59.33 58.64 58.76 60.72 59.48 59.13 57.73 59.20 57.76 56.34 55.27 53.81 53.22 53.13 52.71 52.09 52.59 53.09 50.61
64.87 63.91 64.88 65.04 64.23 64.59 64.89 64.48 64.67 64.07 63.49 62.87 63.03 63.40 62.48 61.70 60.71 61.47 62.18 60.58 61.49 61.14 60.65 58.40 57.13 57.62 57.88 57.94 57.74 58.75 57.45 57.88 57.97 58.37 52.78 50.57 49.45 48.98 49.12 51.27 52.29 54.02 51.40
64.91 63.70 61.35 61.73 61.25 57.56 49.18 55.80 62.49 64.09 63.34 62.80 62.42 61.16 58.81 56.30 54.42 53.73 55.73 55.92 59.34 59.29 58.23 58.04 57.50 56.58 56.78 58.52 58.66 58.16 58.30 56.62 55.25 59.07 55.74 53.67 50.58 49.85 49.90 50.02 49.98 48.58 48.65
65.69 62.84 62.06 61.58 60.21 56.14 48.35 50.16 56.44 63.21 62.29 62.54 61.38 59.94 59.90 59.89 59.46 57.63 51.72 52.32 51.92 52.15 56.55 63.07 59.64 59.85 60.32 60.05 60.11 59.32 58.22 58.20 57.61 58.55 56.04 54.16 56.97 55.32 55.24 54.79 50.44 47.96 46.81
64.89 64.10 62.26 61.57 58.87 52.59 48.87 49.14 56.79 64.52 64.28 63.41 62.87 61.30 59.02 61.25 59.53 60.66 60.68 60.20 59.93 60.18 60.79 62.11 61.88 61.93 60.56 59.39 62.71 62.08 61.42 61.14 61.16 60.58 59.82 55.55 57.31 56.70 56.96 57.18 51.45 48.19 46.51
65.06 64.54 63.35 61.99 58.43 56.30 47.15 47.08 57.78 63.13 63.27 61.97 62.34 61.78 62.96 59.60 48.93 49.25 60.04 59.05 59.22 56.25 47.90 46.51 45.16 43.85 42.79 43.30 46.77 57.50 57.47 56.83 55.59 56.52 58.17 57.73 56.86 56.49 56.56 55.04 54.92 48.21 46.15
65.41 63.84 63.39 63.52 57.93 57.61 43.94 44.61 50.13 61.84 61.38 60.48 59.91 54.56 48.56 56.39 45.08 46.69 59.84 59.54 58.16 58.31 54.19 50.90 52.58 48.72 44.81 49.77 44.86 52.44 53.31 50.36 49.77 49.21 52.30 49.32 48.32 46.80 45.94 50.35 48.54 46.83 45.41
MSLP
1009.74 1009.64 1009.42 1009.33 1009.25 1009.34 1009.81 1010.21 1010.27 1010.49 1010.53 1010.48 1010.35 1010.48 1010.72 1010.67 1011.36 1011.77 1012.70 1013.10 1013.62 1013.96 1014.69 1015.03 1016.09 1017.07 1017.48 1017.92 1018.05 1018.69 1019.25 1019.67 1020.14 1020.68 1021.07 1021.31 1021.98 1022.54 1022.78 1023.15 1023.29 1023.40 1023.66
1009.45 1009.41 1009.25 1009.20 1009.21 1009.10 1009.35 1009.82 1009.81 1010.11 1010.16 1010.16 1010.27 1010.45 1010.47 1010.78 1011.51 1011.44 1012.62 1013.23 1013.76 1014.24 1014.88 1015.25 1015.78 1017.16 1017.75 1018.06 1018.09 1018.99 1019.48 1019.85 1020.21 1021.12 1021.42 1021.84 1022.32 1022.86 1023.18 1023.33 1023.64 1023.65 1023.89
1009.16 1009.14 1009.06 1008.97 1008.98 1008.94 1009.22 1009.48 1009.58 1009.93 1009.77 1009.85 1010.13 1010.57 1010.71 1010.98 1011.21 1011.58 1012.86 1013.39 1014.04 1014.43 1015.09 1015.38 1015.99 1016.88 1017.51 1018.07 1018.42 1019.05 1019.51 1019.81 1020.37 1021.06 1021.68 1022.25 1022.71 1023.18 1023.31 1023.47 1023.87 1024.24 1024.29
1008.73 1008.86 1008.82 1008.68 1008.64 1008.76 1009.09 1009.36 1009.59 1009.75 1009.69 1009.92 1010.17 1010.60 1010.73 1011.04 1011.19 1011.70 1012.86 1013.54 1014.29 1015.05 1015.51 1015.67 1016.35 1016.75 1017.14 1018.00 1018.63 1019.15 1019.48 1020.16 1020.54 1021.31 1022.04 1022.64 1023.06 1023.44 1023.45 1023.78 1024.17 1024.42 1024.68
1008.22 1008.42 1008.54 1008.40 1008.30 1008.64 1008.93 1009.26 1009.47 1009.60 1009.76 1009.90 1010.15 1010.40 1010.69 1010.74 1011.21 1011.64 1012.86 1013.57 1014.32 1015.03 1015.68 1016.02 1016.57 1016.94 1017.68 1018.09 1018.76 1019.48 1020.04 1020.45 1020.81 1021.48 1022.48 1022.87 1023.31 1023.66 1023.72 1024.31 1024.43 1024.66 1025.04
1007.94 1008.12 1008.30 1008.23 1008.32 1008.53 1008.79 1009.07 1009.32 1009.20 1009.42 1009.59 1010.03 1010.34 1010.36 1010.87 1011.13 1011.78 1012.81 1013.65 1014.58 1015.31 1015.77 1016.60 1017.03 1017.88 1018.35 1018.60 1019.07 1019.78 1020.14 1020.37 1021.22 1021.83 1022.56 1023.37 1023.59 1023.80 1024.04 1024.70 1024.70 1024.80 1025.22
1007.85 1007.96 1008.03 1008.07 1008.18 1008.30 1008.45 1008.67 1008.95 1009.30 1009.52 1009.65 1010.31 1010.79 1011.08 1011.09 1011.43 1012.01 1013.16 1014.03 1014.92 1015.60 1016.16 1016.62 1017.25 1018.13 1019.04 1019.32 1019.62 1020.12 1020.32 1020.72 1021.58 1022.10 1023.01 1023.53 1023.71 1023.97 1024.37 1024.66 1024.87 1025.04 1025.38
1007.58 1007.80 1007.87 1007.91 1008.11 1008.13 1008.40 1008.43 1008.72 1009.32 1009.67 1009.91 1010.14 1010.81 1011.50 1012.21 1012.42 1012.89 1013.52 1014.37 1015.15 1015.80 1016.63 1017.25 1017.91 1018.31 1019.13 1019.87 1019.72 1020.35 1020.52 1021.33 1021.97 1022.54 1023.04 1023.44 1023.78 1024.18 1024.50 1024.77 1024.92 1025.27 1025.47
1007.62 1007.74 1007.76 1008.02 1008.20 1008.31 1008.38 1008.52 1009.01 1009.50 1009.96 1010.05 1009.99 1010.28 1011.06 1011.85 1012.49 1013.22 1013.95 1014.71 1015.47 1016.36 1017.04 1017.70 1018.18 1018.27 1019.64 1020.29 1020.34 1020.65 1021.26 1021.66 1022.16 1022.87 1023.09 1023.50 1023.66 1024.17 1024.50 1024.81 1025.08 1025.33 1025.53
1007.67 1007.89 1007.84 1008.02 1008.04 1008.31 1008.24 1008.78 1009.16 1009.94 1010.13 1010.42 1010.44 1010.11 1010.26 1011.55 1012.64 1013.12 1014.19 1015.26 1015.90 1016.74 1017.29 1018.13 1018.38 1019.51 1019.85 1020.29 1020.61 1020.97 1021.55 1022.04 1022.47 1023.04 1023.33 1023.40 1023.83 1024.07 1024.47 1024.87 1025.24 1025.46 1025.38
1007.81 1007.88 1008.08 1008.01 1008.17 1008.36 1008.24 1008.69 1009.10 1009.49 1009.88 1010.20 1010.12 1010.65 1011.14 1012.09 1012.37 1012.27 1014.03 1014.57 1016.49 1017.37 1017.84 1018.48 1019.06 1019.40 1019.96 1020.36 1020.74 1021.22 1021.80 1022.43 1022.89 1022.91 1023.04 1023.26 1023.73 1024.07 1024.73 1025.04 1025.14 1025.15 1025.30
1008.07 1008.04 1008.23 1008.29 1008.52 1008.59 1008.44 1008.50 1009.05 1009.42 1009.89 1009.76 1010.42 1010.83 1011.19 1011.71 1013.17 1013.25 1014.92 1015.54 1016.65 1017.73 1018.35 1019.07 1019.02 1019.68 1020.25 1020.73 1021.10 1021.70 1022.01 1022.25 1022.51 1022.74 1023.27 1023.54 1023.87 1024.54 1024.84 1024.83 1024.77 1024.92 1025.35
1008.31 1008.45 1008.59 1008.64 1008.68 1008.79 1008.78 1008.79 1009.09 1009.08 1009.54 1010.28 1010.74 1011.20 1011.58 1012.42 1012.79 1013.57 1014.84 1016.09 1016.82 1018.20 1018.70 1019.37 1019.60 1019.94 1020.18 1020.53 1020.77 1021.53 1022.02 1022.27 1022.65 1023.12 1023.38 1023.80 1024.12 1024.51 1024.49 1024.48 1024.68 1024.87 1025.04
1008.61 1008.75 1008.75 1008.71 1008.75 1008.87 1009.09 1009.32 1009.43 1009.69 1010.31 1010.67 1011.12 1011.57 1012.23 1012.90 1013.53 1014.39 1015.15 1016.07 1017.54 1018.27 1018.92 1019.22 1019.98 1020.20 1020.43 1020.67 1021.29 1021.82 1022.31 1022.38 1022.77 1023.09 1023.47 1023.57 1024.00 1024.01 1024.32 1024.50 1024.39 1024.94 1024.87
1008.72 1008.80 1008.83 1008.75 1008.83 1009.13 1009.41 1009.70 1009.85 1010.40 1010.83 1011.32 1011.79 1012.23 1012.71 1013.64 1014.61 1014.86 1015.90 1016.35 1016.70 1018.26 1019.27 1019.96 1020.16 1020.34 1020.66 1021.06 1021.52 1021.84 1022.22 1022.51 1022.70 1023.17 1023.51 1023.73 1024.01 1024.03 1024.59 1024.32 1024.21 1024.36 1024.85
1008.75 1008.90 1008.98 1008.97 1009.22 1009.35 1009.53 1009.92 1010.46 1010.91 1011.36 1012.12 1012.54 1012.96 1013.57 1014.27 1014.67 1015.38 1016.13 1016.67 1017.72 1018.00 1018.73 1019.39 1019.64 1020.06 1020.63 1021.08 1021.27 1021.63 1021.85 1022.21 1022.55 1022.97 1023.41 1023.84 1023.92 1024.03 1024.22 1023.99 1024.18 1024.12 1024.51
1008.99 1008.99 1009.24 1009.27 1009.53 1009.66 1010.05 1010.27 1010.82 1011.40 1012.04 1012.68 1013.23 1013.53 1014.07 1014.68 1015.30 1016.00 1016.61 1017.42 1017.94 1018.13 1018.54 1019.28 1019.34 1019.82 1020.31 1020.79 1021.15 1021.21 1021.46 1021.78 1022.37 1022.85 1023.29 1023.31 1023.70 1023.65 1023.61 1023.75 1023.70 1024.05 1024.22
1009.26 1009.18 1009.36 1009.52 1009.82 1010.09 1010.37 1010.61 1011.23 1011.89 1012.56 1013.30 1013.87 1014.29 1014.58 1015.11 1015.75 1016.37 1016.94 1017.70 1018.09 1018.04 1018.26 1018.95 1019.56 1020.09 1020.16 1020.28 1020.75 1021.22 1021.49 1021.59 1022.09 1022.20 1022.66 1022.98 1022.88 1023.17 1023.33 1023.48 1023.54 1023.74 1023.67
1009.60 1009.60 1009.74 1009.71 1010.10 1010.32 1010.54 1010.97 1011.44 1012.14 1012.81 1013.41 1013.87 1014.22 1014.63 1015.44 1016.07 1016.59 1017.28 1017.83 1017.98 1017.86 1018.40 1018.76 1019.39 1019.58 1019.76 1020.40 1021.05 1021.22 1021.27 1021.10 1021.13 1021.39 1022.02 1022.22 1022.35 1022.61 1022.85 1022.96 1023.03 1023.02 1023.19
1009.78 1010.06 1010.24 1010.03 1010.26 1010.60 1010.77 1011.36 1011.86 1012.45 1013.12 1013.79 1014.27 1014.26 1014.80 1015.52 1016.11 1016.66 1017.11 1017.43 1017.31 1017.81 1018.26 1018.71 1019.18 1019.51 1020.06 1020.66 1021.00 1021.15 1021.20 1021.02 1021.24 1021.36 1021.79 1021.95 1022.14 1022.02 1022.01 1021.97 1022.33 1022.87 1023.04
1009.76 1010.27 1010.28 1010.27 1010.68 1011.10 1011.38 1011.62 1012.09 1012.78 1013.24 1013.90 1014.28 1014.72 1015.30 1015.71 1016.22 1016.58 1016.88 1017.10 1017.32 1017.77 1018.14 1018.39 1019.05 1019.43 1020.13 1020.43 1020.69 1020.69 1020.79 1020.78 1020.74 1020.60 1021.05 1021.21 1021.21 1021.28 1021.35 1021.57 1021.98 1022.33 1022.33
1009.67 1010.06 1010.46 1010.83 1011.34 1011.70 1011.74 1012.02 1012.34 1012.86 1013.40 1013.99 1014.75 1015.25 1015.68 1016.09 1016.34 1016.41 1016.71 1016.85 1016.91 1017.17 1017.71 1018.12 1018.53 1019.12 1019.45 1019.84 1019.89 1020.03 1019.98 1020.19 1020.31 1019.75 1020.14 1020.25 1020.25 1020.73 1020.70 1020.76 1020.61 1020.90 1020.90
1009.80 1010.52 1010.93 1011.41 1011.87 1012.09 1012.12 1012.37 1012.64 1013.04 1013.60 1014.00 1014.59 1015.15 1015.56 1015.97 1016.04 1016.26 1016.60 1016.85 1017.33 1017.51 1017.38 1017.39 1017.80 1018.25 1018.65 1018.63 1018.87 1019.06 1019.21 1019.41 1019.35 1018.98 1019.60 1019.73 1019.69 1019.43 1019.14 1018.98 1019.20 1019.34 1019.33
1010.21 1010.65 1011.25 1011.78 1012.30 1012.68 1012.64 1012.77 1012.90 1013.24 1013.62 1013.95 1014.31 1014.69 1015.26 1015.70 1016.18 1016.47 1016.73 1017.05 1017.13 1017.18 1017.24 1017.44 1017.75 1017.99 1018.23 1018.45 1018.39 1018.28 1018.60 1018.88 1018.83 1018.71 1018.91 1019.17 1018.55 1018.42 1017.97 1018.01 1018.07 1018.28 1018.41
1010.46 1010.75 1011.23 1011.91 1012.45 1012.91 1013.06 1013.19 1013.22 1013.49 1013.82 1014.11 1014.55 1014.91 1015.42 1015.97 1016.28 1016.50 1016.95 1017.31 1017.29 1017.47 1017.77 1017.98 1018.24 1018.48 1018.63 1018.89 1019.02 1018.86 1019.07 1019.30 1019.13 1018.83 1018.89 1019.03 1018.81 1018.78 1018.25 1018.12 1017.88 1018.15 1018.26
1010.53 1010.74 1011.15 1011.63 1012.36 1012.95 1013.13 1013.35 1013.63 1013.75 1014.24 1014.56 1014.92 1015.38 1015.66 1015.99 1016.37 1016.64 1016.98 1017.13 1017.64 1017.83 1017.81 1018.19 1018.44 1018.47 1018.72 1018.68 1018.70 1018.59 1018.88 1019.48 1019.73 1019.61 1019.81 1019.74 1019.96 1020.28 1019.95 1019.12 1019.13 1018.92 1018.93
Wind_Speed
3 5 4 4 4 6 6 6 6 6 7 7 8 9 8 5 9 6 5 18 17 19 26 26 23 18 19 20 21 19 19 19 20 18 17 18 17 16 15 14 14 14 14
3 4 4 3 4 4 5 5 6 6 6 7 6 5 7 5 10 8 7 9 20 22 24 25 26 20 20 20 20 20 20 20 21 18 17 17 16 15 14 14 13 14 14
4 6 5 3 4 4 7 5 6 5 4 4 4 4 3 6 7 9 10 8 13 21 23 25 25 25 23 22 23 23 21 21 21 19 17 15 14 13 14 14 13 13 14
5 5 4 2 4 4 5 5 6 4 5 5 4 4 4 7 8 10 10 10 9 8 16 20 20 22 23 22 23 22 22 20 20 18 16 15 14 13 14 13 13 13 13
6 4 4 3 3 4 5 5 6 6 4 4 5 8 6 5 7 8 13 12 10 7 6 13 15 16 19 21 22 22 22 20 19 18 16 15 14 13 13 12 13 12 12
6 4 4 4 4 4 5 4 6 5 6 5 4 3 5 6 5 8 13 11 11 9 9 10 9 10 15 16 20 22 21 21 20 18 15 13 13 13 13 11 11 11 10
7 4 4 5 4 5 6 8 4 5 5 5 5 4 4 4 4 8 11 10 13 10 12 9 7 8 8 22 24 20 20 20 19 18 14 12 12 13 13 11 11 9 9
6 4 5 6 6 4 5 7 6 3 3 4 4 4 4 3 3 7 9 10 12 10 9 10 9 10 5 5 11 17 18 18 17 17 15 12 12 12 11 10 10 9 8
3 4 5 4 5 4 4 5 5 3 4 1 6 4 4 3 5 5 11 9 11 9 9 10 9 9 7 7 12 12 14 15 16 15 15 13 14 12 11 10 10 7 6
3 4 4 5 6 4 6 5 8 2 8 3 3 0 7 5 3 8 8 10 10 9 10 7 8 7 9 8 10 12 11 12 14 14 14 13 12 12 11 9 7 7 5
2 4 4 4 3 2 5 7 7 12 8 7 4 4 7 5 4 7 10 10 10 7 7 8 7 7 8 7 5 8 11 10 11 12 11 12 11 10 10 10 8 7 6
1 4 4 1 2 2 2 5 6 10 8 6 6 5 7 5 6 7 9 11 10 8 7 6 8 7 5 4 8 11 11 10 9 9 9 9 9 10 11 10 8 6 6
4 4 4 2 0 4 3 3 5 7 10 9 8 8 9 7 6 10 9 7 6 3 4 6 6 5 4 4 5 7 9 10 9 9 8 8 10 10 9 8 7 6 6
4 5 4 4 4 5 5 6 5 9 9 7 10 10 9 9 8 8 5 10 9 4 5 4 3 4 4 4 8 10 5 9 9 8 7 8 9 9 9 8 8 7 7
4 5 4 4 5 6 8 9 6 9 10 8 9 8 9 9 7 9 8 5 5 8 4 1 3 3 4 5 7 6 6 8 8 7 7 7 8 6 7 8 9 10 10
5 6 6 7 8 7 9 9 7 9 11 7 6 11 10 7 9 8 7 6 3 6 5 3 2 5 7 7 10 7 9 11 9 8 8 8 8 9 10 9 10 11 11
5 7 8 7 8 7 9 7 8 9 10 9 8 9 11 11 8 8 7 5 4 3 7 3 6 7 6 6 6 3 5 6 5 11 11 11 11 10 12 13 12 11 12
5 6 8 8 7 8 8 9 10 9 10 11 9 10 10 8 10 9 7 6 5 3 6 9 5 5 4 5 6 5 5 7 8 13 14 13 13 14 14 12 12 12 13
7 5 6 5 7 7 8 10 9 9 8 9 11 10 10 10 9 7 8 6 4 4 4 6 6 2 2 4 3 4 5 3 3 12 14 15 14 14 13 12 13 15 15
6 6 4 6 9 7 7 9 9 9 9 8 9 10 10 8 10 9 7 6 4 6 5 6 6 5 4 5 4 4 2 2 2 5 10 10 11 11 13 14 14 15 14
6 7 5 2 10 11 6 9 9 9 9 10 9 8 8 7 8 8 5 4 4 6 5 5 5 4 4 3 5 4 5 5 6 5 5 5 5 6 7 11 13 18 15
7 9 7 8 7 6 7 12 10 8 7 7 8 7 6 9 6 9 8 7 4 6 5 4 5 5 6 6 5 6 5 4 4 6 5 5 6 7 8 8 16 18 18
6 10 9 8 6 6 10 10 12 8 7 8 10 11 10 8 8 8 9 11 7 10 5 5 5 4 6 8 6 5 5 4 4 2 4 4 5 8 8 10 18 21 22
5 6 8 7 6 4 9 10 8 7 6 7 7 7 8 7 6 7 6 5 4 5 5 4 2 4 4 4 1 3 4 2 3 3 4 6 3 6 4 5 12 17 19
4 3 7 8 7 4 5 9 4 6 6 5 8 6 7 7 7 6 7 7 5 2 3 9 8 7 6 7 5 3 2 2 3 3 5 2 4 5 3 2 4 6 12
5 4 6 7 10 6 2 3 4 2 6 4 6 6 7 9 9 7 3 6 6 5 5 3 2 1 5 6 7 5 2 1 1 4 4 5 5 5 5 4 3 4 2
Wind_Direction
283 264 232 270 236 190 201 200 214 215 214 215 212 194 235 195 156 145 155 164 149 144 153 155 152 172 169 166 151 141 137 131 124 122 121 115 120 122 120 121 118 112 106
240 268 270 262 244 253 182 195 203 215 242 190 199 223 227 157 183 144 143 155 157 152 156 146 145 175 164 168 143 144 132 129 121 125 120 123 124 128 127 123 120 116 113
245 249 264 233 246 228 181 207 235 215 202 169 202 216 267 173 167 128 132 134 142 146 150 150 157 162 162 163 149 141 134 129 131 127 125 127 129 134 132 127 123 121 114
234 245 259 231 225 204 182 186 227 208 196 185 170 199 283 172 135 133 146 139 147 152 156 160 163 158 157 165 150 139 130 131 128 126 128 134 137 140 133 129 130 124 118
252 216 239 247 192 182 178 193 211 200 178 203 196 192 154 136 130 155 144 139 137 139 146 146 138 145 164 153 152 142 138 133 127 128 137 140 144 141 130 134 131 125 123
252 217 236 217 189 177 192 194 213 175 185 181 164 171 149 158 162 161 140 129 125 122 137 131 129 153 163 163 151 145 142 133 134 135 136 146 143 137 131 139 132 130 134
264 217 229 201 183 190 197 187 162 192 179 175 123 123 134 96 159 159 129 128 127 129 134 141 137 143 166 171 168 147 142 135 140 138 141 145 143 137 140 142 139 133 142
228 205 207 178 177 194 190 189 149 146 107 184 148 134 131 73 91 121 127 126 127 135 130 128 131 128 127 166 152 141 137 145 143 147 144 143 141 143 142 145 143 156 159
183 190 196 194 156 187 170 167 125 99 121 76 134 135 126 149 145 142 130 123 119 126 132 131 133 115 138 174 168 137 140 143 145 151 149 148 146 149 150 159 164 168 170
170 181 206 165 173 200 162 142 129 161 113 151 127 73 80 93 143 130 119 119 117 116 115 117 109 133 150 156 137 130 127 141 151 154 152 144 154 160 168 168 170 183 196
34 164 201 207 171 252 167 142 154 157 143 176 117 113 92 99 81 102 111 114 107 103 110 119 129 121 131 142 106 129 137 149 149 147 147 154 171 173 176 181 182 194 195
85 145 171 221 184 117 201 137 136 141 134 115 102 124 116 106 131 114 121 115 121 121 117 118 121 132 134 138 133 144 144 136 130 136 159 174 174 185 192 190 190 195 205
67 115 106 145 258 168 173 124 119 139 125 110 111 99 94 100 99 103 109 110 107 80 121 116 125 127 132 129 107 128 137 136 145 157 164 180 181 194 194 190 196 199 208
77 121 140 154 186 181 149 148 142 102 102 96 97 108 106 102 112 119 112 123 109 92 62 89 87 125 128 120 150 147 147 149 158 162 177 174 186 188 197 199 186 201 201
100 91 110 121 126 136 139 124 114 109 97 90 90 95 102 113 108 103 123 106 125 139 107 130 134 154 147 132 155 153 154 162 162 175 178 183 192 191 206 188 187 189 192
118 115 99 116 119 131 126 112 116 115 103 95 95 104 102 109 101 108 107 96 90 122 121 156 110 138 158 158 175 183 165 163 172 180 191 193 196 200 201 196 199 194 198
128 113 113 113 119 116 132 117 108 109 110 109 107 104 109 117 116 109 112 109 125 113 123 139 130 160 174 153 161 198 152 162 176 191 196 198 205 202 205 210 204 204 203
68 86 119 121 118 133 140 132 134 134 132 126 126 122 116 114 118 119 121 149 187 179 138 141 140 152 141 134 162 174 183 190 184 196 195 199 204 212 213 213 210 207 210
100 113 102 131 128 139 148 132 128 127 126 127 128 130 122 124 134 138 147 180 199 147 154 123 127 128 101 130 167 215 216 225 181 173 196 206 210 212 215 216 217 218 216
109 102 139 122 139 154 138 126 130 128 132 135 138 120 125 146 153 173 184 195 190 142 147 138 146 156 159 177 173 183 229 233 185 184 204 205 204 212 218 223 225 229 226
142 133 122 158 100 122 142 130 129 141 133 132 135 124 150 175 168 186 194 198 204 156 152 157 158 141 160 157 195 201 194 207 231 189 192 207 201 210 227 235 234 229 222
125 127 85 76 66 70 64 119 128 130 121 119 131 135 128 125 142 167 168 120 106 144 187 152 161 166 192 178 187 206 207 202 239 207 202 222 185 215 217 212 215 219 212
93 105 96 89 75 62 46 74 119 116 118 133 144 148 157 147 130 115 100 98 96 97 102 98 137 171 171 184 187 196 213 216 235 257 170 256 205 231 208 218 206 208 213
91 108 117 110 99 71 49 46 108 115 124 136 143 119 120 123 119 132 134 126 89 65 39 50 66 54 53 25 25 189 196 253 289 272 208 257 234 235 228 223 215 215 214
129 135 129 128 118 117 67 57 75 104 110 122 90 91 136 124 127 80 155 156 155 142 83 64 78 94 77 61 61 25 324 281 286 302 16 309 318 324 287 308 352 276 238
160 190 141 140 143 143 176 102 46 102 123 111 105 90 56 131 107 66 187 154 154 186 165 159 210 175 197 177 166 168 142 320 332 337 357 50 15 30 340 347 1 360 286